Regional Weather Roundup
Issued by NWS

Home | Current Version | Previous Version | Text Only | Print | Product List | Glossary On
Versions: 1 2 3 4 5 6 7 8 9 10 11 12 13 14 15 16 17 18 19 20 21 22 23 24 25 26 27
000
ASUS44 KJAN 181110
RWRMS

MISSISSIPPI HOURLY WEATHER ROUNDUP
NATIONAL WEATHER SERVICE JACKSON MS
500 AM CST WED JAN 18 2017

NOTE: "FAIR: INDICATES FEW OR NO CLOUDS BELOW 12,000 FEET WITH NO
SIGNIFICANT WEATHER AND/OR OBSTRUCTIONS TO VISIBILITY.

MSZ001>002-007>008-010>013-018>021-025>028-034>036-181200-
NORTHWEST MISSISSIPPI

CITY           SKY/WX    TMP DP  RH WIND       PRES   REMARKS
BATESVILLE     CLOUDY    49  46  87 CALM      30.17S
CLARKSDALE     CLOUDY    50  46  87 N3        30.18R
CLEVELAND      CLOUDY    50  50  99 E7        30.17S
GREENWOOD      CLOUDY    53  48  83 NE6       30.17S
GREENVILLE     CLOUDY    50  46  86 NE7       30.16F
OXFORD         CLOUDY    46  45  93 NE3       30.18S
TUNICA         CLOUDY    45  43  93 N3        30.18R
WINONA         CLOUDY    52  51  97 N5        30.17R
$$

MSZ003>006-009-014>017-022>024-029>033-037>039-181200-
NORTHEAST MISSISSIPPI

CITY           SKY/WX    TMP DP  RH WIND       PRES   REMARKS
COLUMBUS AFB   CLOUDY    61  55  82 N5        30.16R
CORINTH        PTSUNNY   46  43  87 CALM      30.17S
GOLDN TRIANGLE CLOUDY    55  52  88 N7        30.12S
STARKVILLE     CLOUDY    54  54 100 N5        30.17S
TUPELO         CLOUDY    51  46  83 N6        30.16F
$$

MSZ040-058-181200-
CENTRAL MISSISSIPPI

CITY           SKY/WX    TMP DP  RH WIND       PRES   REMARKS
JACKSON INTL   CLOUDY    59  57  93 N6        30.13R
JACKSON HAWKNS CLOUDY    58  56  93 NW3       30.15R
MADISON        CLOUDY    55  54  94 CALM      30.14R
MERIDIAN KEY   CLOUDY    66  66 100 S5        30.13S FOG
MERIDIAN NAS   CLOUDY    64  61  90 CALM      30.14R FOG
RAYMOND        DRIZZLE   57  57 100 CALM      30.14R
VICKSBURG VKS  CLOUDY    57  55  94 CALM      30.12F FOG
$$

MSZ059>079-181200-
SOUTH MISSISSIPPI

CITY           SKY/WX    TMP DP  RH WIND       PRES   REMARKS
BROOKHAVEN     FOG       66  64  94 CALM      30.14S VSB 1/2
HATTIESBURG    CLOUDY    66  65  96 S5        30.14F FOG
LAUREL         CLOUDY    65  65 100 CALM      30.14S
MCCOMB         CLOUDY    66  65  96 S5        30.13R FOG
NATCHEZ        CLOUDY    57  54  88 N5        30.11S
PINE BELT      CLOUDY    66  63  88 S3        30.15F
$$

MSZ080>082-181200-
COASTAL MISSISSIPPI

CITY           SKY/WX    TMP DP  RH WIND       PRES   REMARKS
BILOXI         FOG       64  64 100 CALM      30.13S VSB 1/2
PASCAGOULA     FOG       66  65  96 CALM      30.14R VSB 1/4
GULFPORT       FOG       66  66 100 CALM      30.13S VSB 1/4
$$

LAZ007>009-015>016-023>026-181200-
NORTHEAST LOUISIANA

CITY           SKY/WX    TMP DP  RH WIND       PRES   REMARKS
BASTROP        CLOUDY    53  53  99 NE3       30.14F
TALLULAH/VBURG CLOUDY    55  54  96 NE6       30.14F
VIDALIA        CLOUDY    58  57  97 CALM      30.14R FOG
$$




USA.gov is the U.S. government's official web portal to all federal, state and local government web resources and services.